Погода в Вадзиме

Япония     37°22′41″N   136°48′41″E
темп.,
°C
ветер,
м/с
пор.,
м/с
влажн.,
%
обл.,
%
осадки,
мм/ч
давл.,
гПа
погр.,
м
22 января, пт
пт2200:00+12юз91072100 0.1 10201123
03:00+11юз121384100 0.6 1019945
06:00+12з91177100 2.3 10191166
09:00+11з8972100 2.5 10201172
12:00+11сз3475100 0.4 1020686
15:00+11ссв4468100 0.5 1019851
18:00+11св446595 0.0 1020786
21:00+10всв778097 0.0 1021695
23 января, сб
сб2300:00+10всв777691 0.0 1021791
03:00+10св887696 0.0 1020873
06:00+9св9974100 0.0 1020980
09:00+9всв10117595 0.1 1022950
12:00+9всв101178100 0.0 1021939
15:00+8св121281100 0.1 1021918
18:00+7св121380100 0.0 1021926
21:00+7св121378100 0.1 1021907
24 января, вс
вс2400:00+7св121381100 0.1 1021890
03:00+7св121383100 0.2 1020789
06:00+7св121384100 0.1 1020796
09:00+8ссв111284100 0.3 1021907
12:00+9ссв111184100 0.3 1021808
15:00+8ссв101182100 0.5 1022798
18:00+8ссв10107645 0.0 1024920
21:00+8св9107541 0.0 1025948
25 января, пн
пн2500:00+9св776633 0.0 10271083
03:00+9св776217 0.0 10271078
06:00+8св78662 0.0 10281074
09:00+9св77631 0.0 10311072
12:00+9св66610 0.0 1030920
15:00+9всв56610 0.0 1030914
18:00+9всв67620 0.0 1030853
21:00+9в55610 0.0 1030718
26 января, вт
вт2600:00+9вюв55650 0.0 1029668
03:00+9ююв446914 0.0 1029507
06:00+9ю4573100 0.0 1027509
09:00+10ююз6106795 0.0 1028795
12:00+11ююз91363100 0.0 1025943
15:00+12ю61157100 0.0 1022934
18:00+12юв4560100 0.0 1021282
21:00+12ююв91267100 0.0 1018436